Location: Kitt Peak
(31.9633°N, 111.6000°W)
Time: 02:22:38
(UTC-07:00)

Amateur Radio Satellites - All Passes

Search period start: 18 April 2014 01:52
Search period end: 19 April 2014 01:52
Location: Kitt Peak, 31.9633°N, 111.6000°W

Satellite Date Start Highest point End Downlink Frequencies (MHz)
Time Altitude Azimuth
ITAMSAT 1 18 Apr 02:02:12 02:07:00 38° 99° (E) 02:11:47 435.822 SSB
Oscar 19 18 Apr 02:10:28 02:15:41 84° 284° (WNW) 02:20:52 437.125 CW, 437.150 USB
Oscar 16 18 Apr 02:18:30 02:23:39 65° 285° (WNW) 02:28:47 437.025 USB, Beacon 2401.1428
AO-Echo 18 Apr 02:25:41 02:30:20 52° 100° (E) 02:34:53 ?
TMSAT-1 18 Apr 02:25:52 02:27:48 12° 92° (E) 02:29:44 436.925 FM
OPAL 18 Apr 02:28:39 02:33:38 81° 255° (WSW) 02:38:43 ?
SO-50 18 Apr 02:30:53 02:32:34 12° 253° (WSW) 02:34:15 436.795 FM
KITSAT 1 18 Apr 02:34:52 02:42:57 78° 113° (ESE) 02:51:04 435.175 FM
Uribyol 2 18 Apr 02:50:48 02:55:55 62° 286° (WNW) 03:01:00 436.500 FM
JAS-1B 18 Apr 03:12:23 03:15:58 17° 96° (E) 03:19:39 435.800 - 435.900 CW/SSB
Gurwin Techsat 1B 18 Apr 03:13:35 03:18:50 60° 101° (E) 03:24:03 435.225 FM
UOSAT-12 18 Apr 03:20:13 03:24:56 74° 244° (WSW) 03:29:34 437.025 FM, 437.400 FM
AO-27 18 Apr 03:30:56 03:35:08 26° 291° (WNW) 03:39:20 436.795 MHz FM
ITAMSAT 1 18 Apr 03:42:28 03:46:11 20° 292° (WNW) 03:49:54 435.822 SSB
AO-7 18 Apr 03:57:36 04:04:34 29° 98° (E) 04:11:30 29.400 - 29.500 MHz
TMSAT-1 18 Apr 04:02:50 04:08:03 63° 285° (WNW) 04:13:15 436.925 FM
AO-Echo 18 Apr 04:06:37 04:08:35 13° 294° (WNW) 04:10:33 ?
Uosat F 18 Apr 04:21:04 04:26:04 69° 102° (ESE) 04:31:01 435.120 FM
KITSAT 1 18 Apr 04:33:12 04:39:07 22° 312° (NW) 04:45:05 435.175 FM
Gurwin Techsat 1B 18 Apr 04:55:37 04:58:14 14° 295° (WNW) 05:00:50 435.225 FM
JAS-1B 18 Apr 05:01:27 05:06:50 46° 288° (WNW) 05:12:29 435.800 - 435.900 CW/SSB
STRAND 1 18 Apr 05:07:23 05:09:34 13° 65° (ENE) 05:11:45 ?
AO-40 18 Apr 05:32:11 07:36:37 42° 197° (SSW) 13:19:54 Beacon 2401.320
RS-15 18 Apr 05:48:40 05:59:21 47° 109° (ESE) 06:09:38 29.354 - 29.394 USB, Beacon 29.352 USB
AO-7 18 Apr 05:49:32 05:57:29 52° 292° (WNW) 06:05:26 29.400 - 29.500 MHz
Uosat F 18 Apr 06:02:59 06:04:12 11° 296° (WNW) 06:05:25 435.120 FM
JAS-2 18 Apr 06:28:38 06:32:32 19° 97° (E) 06:36:41 435.800 - 435.900 CW/SSB, 435.910 FM
Hamsat 18 Apr 06:28:45 06:33:05 64° 101° (E) 06:37:24 145.90 MHz
STRAND 1 18 Apr 06:43:07 06:48:11 61° 259° (WSW) 06:53:15 ?
MaSat-1 18 Apr 06:44:33 06:46:52 19° 66° (ENE) 06:49:27 437.345 MHz
SO-67 18 Apr 07:16:07 07:19:21 35° 98° (E) 07:22:34 435.3500 MHz FM
PANSAT 18 Apr 07:34:29 07:36:50 16° 158° (SSE) 07:39:11 not established
RS-15 18 Apr 08:00:59 08:11:37 44° 307° (NW) 08:21:59 29.354 - 29.394 USB, Beacon 29.352 USB
HO-68 18 Apr 08:03:30 08:05:38 11° 92° (E) 08:07:45 435.675 MHz FM
JAS-2 18 Apr 08:12:32 08:17:40 44° 287° (WNW) 08:23:19 435.800 - 435.900 CW/SSB, 435.910 FM
MaSat-1 18 Apr 08:23:02 08:25:11 16° 251° (WSW) 08:27:33 437.345 MHz
Sapphire 18 Apr 08:55:20 08:58:14 14° 52° (NE) 09:01:07 437.095 MHz 1200 baud AX-25 AFSK
PANSAT 18 Apr 09:13:02 09:16:38 37° 169° (S) 09:20:14 not established
Oscar 11 18 Apr 09:36:11 09:39:59 29° 97° (E) 09:43:47 145.825 FM, Beacon 2401.500 USB
PCSat 18 Apr 09:38:46 09:43:47 37° 60° (ENE) 09:48:45 145.825 MHz
HO-68 18 Apr 09:46:47 09:54:00 89° 106° (ESE) 10:01:12 435.675 MHz FM
RS-15 18 Apr 10:24:40 10:27:57 12° 336° (NNW) 10:31:14 29.354 - 29.394 USB, Beacon 29.352 USB
KITSAT 1 18 Apr 10:35:22 10:40:23 17° 45° (NE) 10:45:21 435.175 FM
Sapphire 18 Apr 10:36:45 10:42:08 68° 248° (WSW) 10:47:29 437.095 MHz 1200 baud AX-25 AFSK
PANSAT 18 Apr 10:52:53 10:56:38 50° 181° (S) 11:00:23 not established
Saudisat 1A 18 Apr 10:54:31 10:58:58 79° 298° (WNW) 11:03:27 436.775 MHz
FUNcube-1 18 Apr 10:58:06 11:02:22 85° 103° (ESE) 11:06:45 145.950 - 145.970 MHz USB
Oscar 11 18 Apr 11:12:55 11:15:56 19° 290° (WNW) 11:18:58 145.825 FM, Beacon 2401.500 USB
PCSat 18 Apr 11:22:44 11:26:54 23° 254° (WSW) 11:31:04 145.825 MHz
HO-68 18 Apr 11:37:15 11:40:43 14° 301° (WNW) 11:44:10 435.675 MHz FM
Oscar 16 18 Apr 11:55:55 11:56:58 11° 64° (ENE) 11:58:02 437.025 USB, Beacon 2401.1428
Uribyol 2 18 Apr 12:28:17 12:30:04 12° 64° (ENE) 12:31:51 436.500 FM
KITSAT 1 18 Apr 12:28:47 12:36:55 85° 64° (ENE) 12:44:59 435.175 FM
PANSAT 18 Apr 12:33:09 12:36:36 31° 194° (SSW) 12:40:03 not established
Oscar 10/S400 18 Apr 13:00:44 14:32:19 28° 269° (W) 17:44:05 145.825 - 145.975 CW/USB, Beacon 145.810 USB
AO-27 18 Apr 13:04:57 13:09:20 29° 70° (ENE) 13:13:44 436.795 MHz FM
ITAMSAT 1 18 Apr 13:15:36 13:20:17 36° 71° (ENE) 13:24:59 435.822 SSB
Oscar 19 18 Apr 13:22:25 13:27:32 85° 76° (ENE) 13:32:43 437.125 CW, 437.150 USB
Oscar 16 18 Apr 13:30:32 13:35:38 74° 258° (WSW) 13:40:47 437.025 USB, Beacon 2401.1428
ISS 18 Apr 13:32:33 13:33:03 10° 125° (SE) 13:33:34 145.800 FM
AO-Echo 18 Apr 13:33:22 13:38:20 43° 73° (ENE) 13:43:13 ?
TMSAT-1 18 Apr 13:42:23 13:44:35 13° 65° (ENE) 13:46:48 436.925 FM
JAS-1B 18 Apr 13:53:54 13:57:31 14° 64° (ENE) 14:00:54 435.800 - 435.900 CW/SSB
Uribyol 2 18 Apr 14:03:47 14:08:55 68° 258° (WSW) 14:14:04 436.500 FM
PANSAT 18 Apr 14:15:02 14:16:19 11° 205° (SSW) 14:17:36 not established
KITSAT 1 18 Apr 14:27:09 14:31:16 15° 259° (W) 14:35:22 435.175 FM
Gurwin Techsat 1B 18 Apr 14:29:49 14:35:01 58° 74° (ENE) 14:40:13 435.225 FM
OPAL 18 Apr 14:43:33 14:48:29 42° 101° (E) 14:53:22 ?
AO-27 18 Apr 14:44:24 14:48:44 27° 263° (W) 14:53:06 436.795 MHz FM
AO-7 18 Apr 14:52:03 14:58:35 27° 61° (ENE) 15:05:07 29.400 - 29.500 MHz
RS-15 18 Apr 14:55:54 15:05:37 35° 49° (NE) 15:15:29 29.354 - 29.394 USB, Beacon 29.352 USB
ITAMSAT 1 18 Apr 14:55:56 14:59:48 21° 264° (W) 15:03:41 435.822 SSB
SO-50 18 Apr 14:58:23 15:02:47 59° 115° (ESE) 15:07:12 436.795 FM
ISS 18 Apr 15:06:10 15:09:25 51° 317° (NW) 15:12:41 145.800 FM
AO-Echo 18 Apr 15:13:39 15:17:11 18° 265° (W) 15:20:41 ?
TMSAT-1 18 Apr 15:18:39 15:23:53 65° 259° (WSW) 15:29:09 436.925 FM
Uosat F 18 Apr 15:29:30 15:34:25 56° 74° (ENE) 15:39:20 435.120 FM
JAS-1B 18 Apr 15:38:48 15:47:29 88° 76° (ENE) 15:54:42 435.800 - 435.900 CW/SSB
Gurwin Techsat 1B 18 Apr 16:12:52 16:15:16 13° 267° (W) 16:17:41 435.225 FM
OPAL 18 Apr 16:23:19 16:27:00 20° 295° (WNW) 16:30:41 ?
SO-50 18 Apr 16:41:40 16:43:42 13° 311° (NW) 16:45:44 436.795 FM
AO-7 18 Apr 16:42:41 16:50:47 58° 257° (WSW) 16:58:56 29.400 - 29.500 MHz
RS-15 18 Apr 17:07:42 17:18:24 61° 249° (WSW) 17:29:30 29.354 - 29.394 USB, Beacon 29.352 USB
Uosat F 18 Apr 17:11:26 17:13:28 12° 267° (W) 17:15:30 435.120 FM
Hamsat 18 Apr 17:18:13 17:21:35 24° 71° (ENE) 17:24:58 145.90 MHz
UOSAT-12 18 Apr 17:26:40 17:31:10 77° 298° (WNW) 17:35:48 437.025 FM, 437.400 FM
JAS-1B 18 Apr 17:34:26 17:38:13 14° 265° (W) 17:41:46 435.800 - 435.900 CW/SSB
JAS-2 18 Apr 18:19:47 18:25:27 42° 73° (ENE) 18:30:36 435.800 - 435.900 CW/SSB, 435.910 FM
Hamsat 18 Apr 18:54:20 18:57:28 21° 265° (W) 19:00:38 145.90 MHz
STRAND 1 18 Apr 18:58:40 19:03:45 68° 102° (ESE) 19:08:48 ?
SO-67 18 Apr 19:17:47 19:21:12 56° 260° (W) 19:24:39 435.3500 MHz FM
Saudisat 1A 18 Apr 19:26:48 19:30:09 21° 53° (NE) 19:33:29 436.775 MHz
JAS-2 18 Apr 20:06:12 20:10:34 20° 263° (W) 20:14:39 435.800 - 435.900 CW/SSB, 435.910 FM
HO-68 18 Apr 20:10:09 20:16:42 41° 68° (ENE) 20:23:16 435.675 MHz FM
Oscar 11 18 Apr 20:28:22 20:30:24 13° 68° (ENE) 20:32:27 145.825 FM, Beacon 2401.500 USB
STRAND 1 18 Apr 20:40:46 20:42:18 11° 296° (WNW) 20:43:51 ?
MaSat-1 18 Apr 20:43:16 20:46:11 30° 110° (ESE) 20:48:43 437.345 MHz
Saudisat 1A 18 Apr 21:05:54 21:09:45 30° 248° (WSW) 21:13:34 436.775 MHz
ISS 18 Apr 21:39:24 21:41:51 19° 35° (NE) 21:44:18 145.800 FM
FUNcube-1 18 Apr 21:50:21 21:54:13 35° 74° (ENE) 21:58:02 145.950 - 145.970 MHz USB
HO-68 18 Apr 21:58:15 22:04:22 31° 262° (W) 22:10:32 435.675 MHz FM
Oscar 11 18 Apr 22:02:08 22:06:12 41° 261° (W) 22:10:17 145.825 FM, Beacon 2401.500 USB
ISS 18 Apr 23:15:35 23:18:40 34° 230° (SW) 23:21:44 145.800 FM
Oscar 10/S400 18 Apr 23:22:45 23:27:31 11° 146° (SE) 23:32:16 145.825 - 145.975 CW/USB, Beacon 145.810 USB
FUNcube-1 18 Apr 23:28:33 23:30:42 14° 266° (W) 23:32:50 145.950 - 145.970 MHz USB
Sapphire 18 Apr 23:31:02 23:35:45 32° 108° (ESE) 23:40:29 437.095 MHz 1200 baud AX-25 AFSK
SO-50 18 Apr 23:35:45 23:38:40 16° 51° (NE) 23:41:36 436.795 FM
PCSat 19 Apr 00:15:09 00:20:33 88° 294° (WNW) 00:25:59 145.825 MHz
AO-40 19 Apr 00:18:59 00:26:32 21° 160° (SSE) 00:54:49 Beacon 2401.320
KITSAT 1 19 Apr 00:59:11 01:04:29 19° 103° (ESE) 01:09:47 435.175 FM
Sapphire 19 Apr 01:14:30 01:19:05 28° 303° (WNW) 01:23:43 437.095 MHz 1200 baud AX-25 AFSK
SO-50 19 Apr 01:14:57 01:19:28 49° 246° (WSW) 01:24:01 436.795 FM
AO-27 19 Apr 01:24:00 01:26:52 15° 94° (E) 01:29:43 436.795 MHz FM
ITAMSAT 1 19 Apr 01:34:11 01:37:49 19° 95° (E) 01:41:25 435.822 SSB
Oscar 19 19 Apr 01:39:11 01:44:10 45° 100° (E) 01:49:06 437.125 CW, 437.150 USB
